Theta_e
307 309 313 316 311 310 314 317 314 321 322 327 326 326 325 325 326 324 322 321 318 316 317 319 322 327 329 331 333 335 332 330 330 328 327 324 329 331 331 331 326 323 331 330 329 332 331 330 326
308 313 316 313 308 313 313 312 321 321 323 325 325 323 323 323 322 322 320 318 316 313 312 312 313 319 326 328 331 333 333 330 329 328 328 325 325 330 331 332 326 330 332 332 331 332 328 326 323
313 316 315 305 305 310 313 313 317 321 324 326 323 322 321 321 321 320 319 316 314 313 311 309 309 311 316 324 329 331 333 331 330 328 328 327 325 325 330 332 328 330 332 332 330 329 326 326 325
316 315 313 309 313 312 313 313 313 317 316 317 322 320 320 322 320 318 316 315 313 311 308 307 307 307 309 315 324 328 330 333 330 330 328 328 326 327 330 332 327 333 332 331 329 327 324 321 319
315 313 310 312 314 313 311 312 314 314 315 314 317 320 319 318 317 316 315 314 310 307 306 306 306 307 307 309 314 324 328 329 330 331 330 329 327 327 329 332 331 330 329 327 325 325 319 319 321
313 309 310 313 313 313 311 312 314 313 314 314 313 318 318 316 315 314 315 312 307 305 305 305 306 307 307 308 309 317 325 328 328 329 329 329 328 325 328 330 331 329 325 324 316 324 324 323 323
310 306 308 311 313 313 312 312 312 312 313 312 313 311 314 313 313 314 313 308 305 305 305 305 305 306 307 308 309 311 322 323 327 327 328 329 328 327 323 327 330 331 326 327 322 322 325 323 323
312 306 310 311 312 314 311 311 312 312 311 312 312 308 309 310 311 310 309 306 305 304 304 304 305 306 307 308 309 311 317 320 322 325 325 326 328 326 323 323 323 331 328 326 328 322 324 323 322
313 308 309 310 310 312 308 311 310 311 310 310 311 310 311 311 310 309 308 305 304 304 304 303 303 303 305 308 309 310 311 318 319 323 325 325 326 325 326 323 322 325 328 324 326 321 324 323 321
309 307 309 307 307 307 307 308 308 309 307 308 309 310 310 310 310 309 306 305 305 305 305 304 304 302 302 303 306 309 311 313 318 323 325 324 323 323 322 323 322 324 327 326 324 321 322 322 321
306 308 307 308 307 308 308 308 309 308 306 308 308 309 309 310 310 308 305 305 305 305 305 305 305 304 302 301 301 305 310 311 315 319 320 324 322 320 319 320 320 322 325 325 323 322 320 321 318
308 306 307 308 309 308 307 307 307 307 308 309 308 308 309 309 309 306 306 306 306 306 305 305 304 303 302 301 299 300 306 311 312 316 317 319 323 322 319 320 320 321 321 324 322 320 316 317 319
307 307 308 308 307 307 307 307 305 306 307 308 308 308 308 308 308 307 307 307 306 306 305 305 304 302 301 299 298 298 301 308 312 314 316 319 321 321 320 319 319 320 323 322 321 321 315 317 320
307 307 307 307 307 307 306 306 306 307 308 308 308 308 308 308 307 307 307 307 307 306 305 304 304 301 299 297 296 296 298 301 308 313 315 317 318 320 321 321 320 319 323 324 324 322 316 318 313
307 307 306 307 307 306 306 303 304 306 307 308 308 308 308 308 307 307 307 307 307 306 305 304 304 301 299 297 296 296 296 298 302 309 313 314 316 318 320 320 321 319 319 323 325 322 318 320 317
306 304 304 305 306 306 305 303 302 306 307 308 308 308 308 308 307 307 307 307 307 306 305 304 303 300 299 297 298 301 297 297 300 304 312 314 314 315 318 318 321 321 320 320 322 323 322 320 316
302 304 305 304 305 305 305 303 303 306 307 307 307 306 306 307 307 306 305 305 306 305 304 304 302 300 299 296 300 302 302 297 299 304 309 313 314 315 316 316 319 321 321 319 319 322 322 320 318
306 304 303 303 303 305 304 303 303 305 304 305 305 307 307 307 306 305 304 303 303 304 304 303 301 300 298 295 300 302 302 300 300 305 309 312 312 313 316 317 319 320 319 319 320 319 320 320 320
304 304 304 302 303 303 302 301 301 302 302 302 305 306 306 307 306 305 304 303 303 303 303 302 301 299 296 296 299 302 302 301 301 307 308 311 312 312 314 316 318 321 321 320 319 320 321 321 321
305 305 303 301 302 303 301 303 302 301 302 304 305 306 307 306 306 305 304 303 303 303 302 301 300 298 295 297 298 301 302 301 303 306 308 311 314 313 314 315 317 320 317 321 319 321 322 320 321
305 305 304 303 302 302 300 301 299 303 303 305 306 306 307 306 306 305 304 303 302 302 301 301 299 296 295 299 300 301 301 303 306 308 309 310 312 314 315 316 317 318 319 320 319 319 321 321 320
303 303 304 304 303 301 300 302 302 301 301 303 305 306 307 306 306 305 304 303 302 302 301 300 298 294 297 301 301 301 301 304 307 308 310 312 313 315 316 317 316 318 319 320 320 321 321 322 322
304 304 304 304 305 304 303 301 302 299 305 304 301 305 305 306 305 305 304 303 302 301 301 299 296 294 297 301 301 301 301 303 306 308 310 312 314 315 314 316 317 318 318 321 320 321 321 321 322
303 304 301 302 302 298 304 299 302 300 304 302 301 303 305 305 305 304 303 302 301 300 300 298 295 295 298 301 302 302 302 304 305 306 309 312 314 315 314 317 318 319 319 322 320 321 321 321 322
303 301 301 305 301 303 301 301 303 301 300 300 301 304 304 304 304 303 303 302 300 300 298 297 294 295 299 302 302 302 302 303 305 307 309 312 313 315 313 318 319 320 319 322 320 321 319 320 321
302 301 303 302 302 301 300 303 304 300 301 303 303 303 304 304 303 303 302 301 299 299 298 295 294 296 301 302 302 302 303 302 303 305 309 310 314 315 314 314 320 318 319 320 321 319 319 321 319
303 304 300 297 291 300 301 300 300 301 300 301 303 303 304 304 303 302 301 300 298 298 297 294 294 301 301 302 303 303 302 303 303 304 308 310 312 314 313 314 319 319 320 321 321 318 319 321 322
302 301 303 299 303 302 302 302 303 303 303 300 300 302 304 304 303 302 300 299 298 297 295 294 296 301 302 302 303 303 302 303 303 303 304 307 311 313 314 316 319 319 321 321 320 320 321 322 322
301 301 300 301 301 301 300 308 300 302 300 300 299 302 304 304 303 302 300 299 297 297 295 294 300 301 302 302 302 302 302 302 303 303 304 307 312 315 315 316 317 320 321 320 319 320 322 322 322
301 301 300 304 302 297 299 303 302 300 299 299 301 303 304 304 303 302 301 299 297 297 296 294 301 301 302 302 300 301 301 301 302 302 304 304 310 314 315 317 317 318 321 321 321 320 321 322 321
Wind_Speed
1 5 5 4 4 5 2 3 1 3 2 2 1 1 2 1 2 3 2 5 8 11 12 13 14 13 11 11 12 10 11 11 12 10 10 10 11 11 10 10 10 10 11 13 15 16 16 11 7
5 6 3 3 5 3 4 4 4 2 2 3 1 1 1 1 3 3 4 7 8 10 11 12 12 12 11 13 12 13 12 13 14 13 12 12 12 12 12 11 12 14 13 14 15 15 12 10 8
6 3 2 4 4 4 4 3 3 1 1 2 2 2 2 1 2 3 5 9 12 14 15 16 15 14 12 13 12 13 11 16 14 16 15 13 13 13 13 13 15 17 16 15 12 13 12 10 9
3 2 5 4 3 3 3 2 3 1 1 2 1 4 4 5 3 4 9 11 14 17 19 18 16 16 15 14 14 14 12 12 14 17 20 17 15 14 15 15 16 18 18 15 13 14 13 10 12
2 3 4 3 3 2 2 2 3 1 3 2 2 3 4 6 8 8 10 12 16 18 20 19 18 16 15 15 15 14 12 12 15 18 17 17 18 16 14 16 19 20 17 14 17 14 13 14 16
2 3 3 2 3 2 2 4 3 2 3 3 2 2 4 6 7 8 10 14 18 18 18 19 19 17 16 15 15 14 12 11 13 18 21 20 21 19 14 16 20 23 22 16 18 18 15 17 16
5 3 3 3 3 2 4 6 4 3 2 3 2 1 4 7 7 9 13 17 18 18 17 15 16 17 16 16 15 15 14 13 12 12 16 23 20 20 14 9 18 25 24 20 20 22 18 18 17
4 4 3 3 3 4 3 4 2 3 3 3 3 2 4 10 9 11 15 19 19 17 16 15 15 15 16 16 16 15 15 14 17 14 14 17 25 24 18 17 26 28 27 22 22 24 21 19 18
3 3 3 4 6 3 2 2 2 2 5 5 6 8 11 12 11 12 16 16 16 16 16 16 16 16 16 17 16 16 15 16 16 16 12 16 19 27 26 26 30 23 25 24 19 23 22 18 17
3 3 5 3 5 3 3 2 2 2 4 6 9 11 14 14 13 14 16 14 13 14 15 17 18 17 16 16 17 18 17 15 16 13 21 14 16 18 22 24 28 16 18 19 20 21 21 20 20
1 3 2 2 2 2 3 3 4 3 5 10 6 5 9 12 14 16 14 13 14 15 16 18 19 19 18 18 17 17 18 16 16 14 18 19 20 19 19 18 16 15 23 18 15 16 22 21 19
1 1 1 2 2 1 2 3 5 12 9 6 9 11 12 12 14 14 13 12 13 15 15 17 21 20 19 18 18 19 18 17 16 19 20 24 18 28 24 20 17 13 20 13 12 16 22 20 17
2 1 0 1 2 4 7 9 8 19 16 12 13 13 12 13 15 13 13 13 14 15 15 16 20 21 20 19 18 19 18 17 16 17 27 19 19 31 24 28 24 19 16 21 20 22 23 21 19
3 2 1 1 3 4 3 5 5 4 4 7 8 9 10 12 13 15 15 16 18 19 17 17 21 21 21 21 19 19 18 17 16 16 17 27 21 21 18 28 28 29 14 22 24 26 26 20 23
4 1 3 3 2 3 6 7 9 15 7 8 9 10 12 13 13 14 14 17 19 19 18 18 20 21 21 21 19 19 19 18 16 16 19 17 19 19 19 23 30 31 20 18 32 30 29 24 25
3 4 4 0 2 3 4 9 2 3 8 13 12 12 14 14 13 12 14 16 15 16 17 17 20 22 22 21 20 19 18 17 16 15 16 16 16 16 20 21 20 29 31 15 16 19 22 29 26
6 1 1 6 2 2 2 8 4 2 8 15 16 18 19 15 10 9 12 12 12 14 15 17 20 21 22 21 19 18 16 15 16 13 14 14 18 13 14 17 21 28 28 20 12 11 21 25 26
2 1 3 5 2 2 5 19 15 28 18 20 21 13 15 10 8 9 10 11 11 12 15 16 19 21 22 20 18 17 16 12 13 12 11 12 15 15 14 18 20 29 24 22 20 12 16 19 23
4 2 3 4 3 4 5 12 17 21 14 19 21 17 14 7 5 7 9 11 10 12 14 15 18 19 20 19 18 15 12 11 10 13 11 12 13 15 17 18 21 25 29 27 22 23 21 21 23
2 0 4 5 2 3 6 20 11 5 5 5 7 9 9 7 5 7 9 10 10 11 12 15 17 19 18 17 16 16 13 8 6 7 9 12 13 16 18 20 20 23 26 19 22 23 27 24 27
0 2 1 2 8 1 8 7 6 2 4 3 3 6 8 7 7 8 8 9 9 9 11 15 16 17 16 15 14 12 10 4 1 7 9 10 13 15 17 16 19 25 32 29 25 26 26 31 29
3 1 2 2 5 3 4 5 5 5 8 4 6 9 11 10 8 9 9 9 9 8 10 13 15 15 14 13 13 12 8 0 0 6 8 8 12 11 14 20 20 26 29 33 28 24 29 30 31
1 1 1 2 2 3 4 3 7 4 4 4 7 7 6 7 6 8 8 9 9 8 9 11 13 14 12 12 12 10 6 2 2 6 8 8 7 7 17 20 23 27 28 32 32 31 30 29 30
3 2 3 3 2 3 3 3 5 2 3 5 4 9 6 6 6 8 9 9 9 8 9 10 12 11 12 12 10 9 4 0 2 6 8 5 3 4 12 9 21 26 28 30 33 29 33 29 30
2 2 4 6 4 4 1 2 9 5 4 5 7 11 8 7 7 8 9 9 9 8 8 9 9 9 9 10 9 7 4 3 3 5 7 5 4 4 7 6 22 28 32 29 27 26 29 25 26
1 2 5 4 1 5 1 5 4 5 7 9 10 10 9 7 9 9 8 8 8 8 7 8 7 8 8 9 8 6 4 4 3 3 4 4 2 3 8 13 20 23 28 28 24 27 29 26 27
2 1 3 7 1 3 3 7 8 4 8 9 13 11 10 8 8 8 7 7 6 7 6 6 6 6 7 8 7 7 5 3 4 2 1 2 2 3 6 8 18 24 25 28 22 24 24 23 22
1 4 3 3 0 4 5 6 5 4 5 5 8 13 9 8 6 7 8 6 5 5 4 4 4 6 7 7 7 7 5 4 3 1 1 4 4 5 4 2 11 13 22 28 25 21 18 19 19
1 1 3 2 3 4 1 6 7 7 7 7 9 10 10 8 8 7 7 6 5 3 3 3 3 5 6 7 8 8 6 4 2 1 3 4 4 7 4 5 7 15 20 22 20 18 17 18 19
1 3 4 4 4 1 2 7 1 6 5 6 13 11 11 10 9 9 7 7 5 3 2 1 3 4 6 8 7 8 7 5 2 3 4 3 5 5 8 10 10 11 21 19 17 13 13 13 14
Wind_Direction
70 131 129 114 65 67 290 265 288 301 319 344 85 181 158 166 192 224 327 352 338 340 344 342 333 315 323 314 293 282 254 252 248 236 239 230 227 228 224 218 195 181 170 166 163 163 173 170 166
124 126 111 91 89 83 259 253 212 225 17 90 3 318 246 228 237 269 302 331 335 337 343 341 337 324 309 302 313 292 265 247 251 239 234 234 225 226 226 216 192 183 177 169 166 174 176 179 180
128 138 67 90 107 177 209 229 232 341 59 324 305 315 291 240 250 250 294 322 333 333 332 329 325 321 312 302 290 292 291 246 240 243 236 223 230 223 227 217 192 196 186 178 186 197 185 183 190
142 108 61 81 190 230 203 212 256 329 168 49 340 302 287 265 274 271 308 325 331 328 325 323 318 311 305 300 296 290 275 272 246 240 234 219 215 226 218 217 198 185 180 186 203 204 189 186 166
117 72 59 76 256 254 242 213 187 245 291 323 350 289 263 282 264 287 310 325 326 323 321 320 318 313 306 296 289 287 294 282 258 243 234 228 216 206 217 216 207 202 205 225 202 189 173 165 163
78 85 73 221 246 261 256 202 168 217 264 283 282 281 267 275 286 298 312 320 322 323 322 320 320 317 310 303 293 284 278 276 269 257 242 233 219 216 206 215 218 211 212 201 190 177 169 165 165
104 80 190 175 228 278 216 177 184 204 258 276 244 258 275 310 301 305 314 320 326 328 328 326 321 317 313 307 301 292 276 271 268 265 254 232 228 213 216 242 227 221 216 200 183 174 179 178 176
111 92 114 228 191 264 170 166 162 193 257 243 230 227 286 323 316 312 318 323 327 330 332 333 328 319 312 304 298 293 280 267 263 263 259 256 233 220 218 246 233 234 212 203 183 178 183 187 186
124 69 197 214 157 235 176 153 193 229 248 248 232 252 280 297 296 303 318 318 320 326 333 333 331 325 315 308 299 294 286 263 261 261 242 252 245 237 240 238 224 242 177 178 183 184 186 189 186
95 127 223 169 174 187 197 199 222 246 237 253 248 264 281 283 288 303 310 309 316 325 327 330 333 329 322 310 299 292 287 278 260 268 237 237 226 234 231 226 229 237 247 200 184 185 190 193 187
72 184 171 193 193 167 196 260 224 210 255 228 214 288 294 283 284 297 302 311 323 331 332 336 335 330 324 315 305 292 287 279 271 253 254 227 214 218 219 214 217 218 167 179 182 186 195 203 198
82 111 174 184 213 210 242 283 269 228 243 249 277 289 286 286 290 297 303 313 328 330 329 332 334 329 323 315 308 299 288 279 269 258 253 237 217 216 218 217 220 227 234 204 191 205 197 190 182
81 173 91 180 236 270 283 264 263 267 263 261 265 272 281 286 291 292 293 300 306 310 316 323 330 326 320 317 307 298 290 283 268 259 240 252 230 240 228 223 216 221 232 220 207 206 196 190 187
114 127 135 255 275 274 274 270 336 296 196 228 246 254 265 279 297 291 292 295 293 296 306 316 328 328 321 319 311 300 293 284 271 263 252 240 246 243 229 230 229 230 224 214 216 205 198 191 182
107 11 321 230 288 312 331 274 231 258 261 259 257 260 262 274 289 303 298 298 290 284 296 311 322 323 324 319 314 302 293 289 276 261 254 258 241 242 243 249 226 217 225 219 202 205 202 201 177
53 57 17 41 16 343 14 279 311 240 272 268 274 278 277 278 292 306 306 308 294 281 294 307 319 323 322 319 315 307 296 289 279 264 252 252 261 246 245 247 239 220 221 229 224 207 202 181 177
15 251 244 326 46 295 146 274 268 220 308 278 283 287 289 287 300 318 324 319 302 288 291 304 317 319 320 320 316 312 301 289 277 254 247 247 247 254 244 233 237 214 220 214 221 197 201 181 180
213 332 274 239 326 293 248 262 269 279 282 275 280 288 283 285 320 330 335 333 320 292 295 307 315 320 322 322 319 316 306 290 277 251 239 246 251 248 243 231 226 205 209 210 201 195 190 204 184
130 161 262 273 48 325 252 277 283 288 265 264 268 272 272 279 306 326 334 334 323 299 301 308 318 323 323 326 321 319 308 284 270 258 243 244 251 259 248 237 222 224 201 205 202 201 191 194 202
100 150 291 282 41 2 329 296 281 293 274 270 272 257 258 267 297 314 329 334 322 304 302 315 323 326 329 329 327 327 326 301 271 268 256 251 243 250 244 242 229 214 213 214 209 205 187 193 205
174 198 190 223 326 197 311 295 343 315 333 317 267 255 259 269 287 302 319 333 325 312 309 320 326 329 335 333 331 326 322 313 308 270 263 254 252 256 250 239 235 214 214 218 223 214 215 205 203
254 163 112 42 28 291 6 278 314 338 314 295 291 260 262 267 279 297 314 329 328 312 310 320 332 336 337 338 342 337 343 4 348 287 289 271 252 271 277 244 239 216 210 217 218 219 211 209 199
285 344 65 79 58 347 351 70 272 354 317 303 342 342 285 269 278 296 312 323 323 319 314 326 339 341 345 345 353 344 342 352 30 288 304 293 266 275 315 259 239 216 209 217 213 217 213 217 208
142 119 43 56 66 25 282 115 287 241 237 307 328 336 314 302 303 308 315 324 325 320 321 335 344 346 349 350 359 359 333 231 311 308 317 302 302 297 320 240 214 203 208 214 211 218 210 213 215
130 56 344 357 12 219 351 352 246 256 253 237 281 311 318 310 311 313 317 322 321 317 324 341 353 347 351 349 359 2 318 299 299 302 323 322 249 14 10 267 206 205 209 206 208 210 198 210 209
161 160 146 214 276 276 65 240 244 213 272 271 273 290 299 305 308 315 314 320 319 316 331 346 2 351 359 349 357 347 338 306 307 339 336 342 102 5 9 350 200 202 205 205 208 201 197 206 211
209 65 139 103 54 38 263 283 302 269 275 267 273 280 280 287 298 307 313 314 316 317 327 354 10 5 8 2 3 359 355 328 309 342 1 30 91 104 48 336 183 201 201 198 202 202 206 215 218
55 149 77 9 43 300 293 285 243 254 239 263 267 264 279 280 279 304 312 313 311 310 328 5 20 18 3 1 360 355 2 331 316 299 17 31 68 96 92 353 144 177 182 188 189 194 192 188 190
104 33 51 110 126 173 277 274 216 220 211 226 254 273 284 284 277 287 305 308 310 309 334 21 32 24 13 359 5 12 14 13 345 11 41 43 91 115 108 79 92 135 153 163 173 190 194 194 196
313 210 168 128 241 69 139 272 275 247 278 278 275 284 289 286 285 277 287 297 300 304 330 60 78 26 11 14 34 13 6 9 48 88 111 92 94 133 104 100 114 114 148 164 168 156 159 180 192